FALCON-9 R/B, 60087

Orbit data source: Space-Track

FALCON-9 R/B, 60087 is space debris in HEO originally from a launch on Thu, 20 Jun 2024 UTC launched from the Air Force Eastern Test Range (AFETR). Debris objects in space refer to the collection of defunct objects orbiting the Earth. Examples of debris include non-operational satellites, rocket bodies, and fragments generated from explosions, collisions, or faulty payload assembly.

Loading next visibility...
Identifier
60087, 2024-115B
Orbit
HEO
Country
Flag of USUS
Related business
Manufacturer
SpaceX
Mission
Spacecraft
Bus & Motor
F9ST2, Unknown motor
Mass
~4,000 kg wet, ~4,000 kg dry
Launch date (UTC)
Icon of a cake. It is the launch day of the satellite!2024-06-20 (2 years ago)
Launch vehicle
Unknown
Launch site
Air Force Eastern Test Range (AFETR)
Object type
Payload
Rocket body
Debris
Shape & HBR
Cyl, 7.8 m
Radar Cross Section
39.980 m², Large (>1 m²)

Expand to show TLE details & history
Last TLE update: 22 hours ago

TLE from 22 hours ago
0 FALCON-9 R/B
1 60087U 24115B   26170.95391703  .00000115  00000-0  82055-3 0  9997
2 60087  26.6899 274.0241 7954688  63.8377 354.4760  1.44178385 10498
Epoch: 2026-06-19T22:53Z
TLE epoch observation values (Epoch: 2026-06-19T22:53:38.431Z)
Latitude
0.00014°
Longitude
22.58278°
Altitude
2,641.271 km
Speed
8.737 km/s
True Right ascension
18h 16m 40s
True Declination
0° 00' 01"
Sunlit
Object was in full shadow at epoch
Visualization orbit readout
Latitude
Unknown
Longitude
Unknown
Altitude
Unknown
Speed
Unknown
Apparent Right ascension
Unknown
Apparent Declination
Unknown
Sunlit
N/A
Visualization observer readout
Local Sidereal Time
07:19:30
Azimuth
Unknown
Elevation
Unknown
Doppler factor
Unknown
Orbital elements
Apogee altitude
53,055.811 km
Perigee altitude
392.294 km
Semi-major axis
33,102.189 km
Eccentricity
0.79547
Inclination
26.6899°
RAAN
274.0241°
Arg. of periapsis
63.8377°
True anomaly
295.09746°
Mean anomaly
354.476°
Eccentric anomaly
335.77427°
Mean motion
0.36038 °/min
Orbital period
998.95 mins
BSTAR
0.00082055
Loading maneuver chart data...
Computing Atmospheric mass density...
Loading historical data...
Loading historical data...
Loading historical data...
Loading historical data...
Loading historical data...
Loading historical data...
Loading historical data...
Other satellites on launch #115 in the year 2024 (2024-06-20 UTC)

Documentation

Showing up to 5 results
|